Thief River Falls, MN

10:23 AM CDT on October 19, 2017 (GMT -0500)
Thief River Falls Regional

Weather History for KTVF - June, 2013

Change the Weather History Date:

Friday, June 14, 2013

  Actual Average Record
Temperature  
Mean Temperature 68 °F -  
Max Temperature 78 °F 68 °F 89 °F (1991)
Min Temperature 57 °F 50 °F 38 °F (1989)
Cooling Degree Days 2    
Growing Degree Days 18 (Base 50)    
Moisture  
Dew Point 55 °F    
Average Humidity 64    
Maximum Humidity 88    
Minimum Humidity 47    
Precipitation  
Precipitation 0.00 in - - ()
Sea Level Pressure  
Sea Level Pressure 29.91 in    
Wind  
Wind Speed 10 mph (SE)    
Max Wind Speed 24 mph    
Max Gust Speed 30 mph    
Visibility 10 miles    
Events      
Averages and records for this station are not official NWS values.
T = Trace of Precipitation, MM = Missing Value Source: NWS Daily Summary

Daily Weather History Graph

Daily Weather History Graph

Search for Another Location

Airport or City:

Trip Planner

Search our weather history database for the weather conditions in past years. The results will help you decide how hot, cold, wet, or windy it might be!

Date:

Astronomy

Jun. 14, 2013 Rise Set
Actual Time 5:24 AM CDT 9:26 PM CDT
Civil Twilight 4:43 AM CDT 10:07 PM CDT
Nautical Twilight 3:45 AM CDT 11:04 PM CDT
Astronomical Twilight 2:08 AM CDT 12:43 AM CDT
Moon 11:23 AM CDT (6/14) 12:11 AM CDT (6/14)
Length of Visible Light 17h 24m
Length of Day
16h 01m
Waxing Crescent, 30% of the Moon is Illuminated
Jun 14
Waxing Crescent
Jun 16
First Quarter
Jun 23
Full
Jun 29
Last Quarter
Jul 8
New

Hourly Weather History & Observations

Time (CDT) Temp. Dew Point Humidity Pressure Visibility Wind Dir Wind Speed Gust Speed Precip Events Conditions
12:15 AM 60.8 °F 51.8 °F 72% 30.03 in 10.0 mi ESE 6.9 mph - N/A   Clear
12:35 AM 60.8 °F 51.8 °F 72% 30.04 in 10.0 mi ESE 5.8 mph - N/A   Clear
12:55 AM 60.8 °F 51.8 °F 72% 30.04 in 10.0 mi ESE 5.8 mph - N/A   Clear
1:15 AM 60.8 °F 51.8 °F 72% 30.03 in 10.0 mi ESE 8.1 mph - N/A   Clear
1:35 AM 60.8 °F 51.8 °F 72% 30.03 in 10.0 mi SE 8.1 mph - N/A   Clear
1:55 AM 60.8 °F 51.8 °F 72% 30.03 in 10.0 mi SE 6.9 mph - N/A   Clear
2:15 AM 59.0 °F 51.8 °F 77% 30.03 in 10.0 mi ESE 8.1 mph - N/A   Clear
2:35 AM 57.2 °F 51.8 °F 82% 30.02 in 10.0 mi SE 8.1 mph - N/A   Clear
2:55 AM 57.2 °F 51.8 °F 82% 30.01 in 10.0 mi SE 6.9 mph - N/A   Clear
3:15 AM 57.2 °F 51.8 °F 82% 30.00 in 10.0 mi ESE 9.2 mph - N/A   Clear
3:35 AM 59.0 °F 53.6 °F 82% 30.00 in 10.0 mi ESE 6.9 mph - N/A   Clear
3:55 AM 59.0 °F 53.6 °F 82% 30.00 in 10.0 mi ESE 8.1 mph - N/A   Clear
4:15 AM 59.0 °F 53.6 °F 82% 30.00 in 10.0 mi SE 6.9 mph - N/A   Clear
4:35 AM 59.0 °F 53.6 °F 82% 30.00 in 10.0 mi ESE 8.1 mph - N/A   Clear
4:55 AM 57.2 °F 53.6 °F 88% 29.99 in 10.0 mi ESE 8.1 mph - N/A   Clear
5:15 AM 59.0 °F 53.6 °F 82% 29.98 in 10.0 mi ESE 9.2 mph - N/A   Clear
5:35 AM 60.8 °F 53.6 °F 77% 29.99 in 10.0 mi ESE 8.1 mph - N/A   Clear
5:55 AM 60.8 °F 53.6 °F 77% 29.99 in 10.0 mi ESE 8.1 mph - N/A   Clear
6:15 AM 60.8 °F 51.8 °F 72% 29.99 in 10.0 mi ESE 9.2 mph - N/A   Clear
6:35 AM 60.8 °F 51.8 °F 72% 29.99 in 10.0 mi ESE 10.4 mph - N/A   Clear
6:55 AM 60.8 °F 51.8 °F 72% 30.00 in 10.0 mi ESE 6.9 mph - N/A   Clear
7:15 AM 62.6 °F 51.8 °F 68% 30.01 in 10.0 mi SE 8.1 mph - N/A   Clear
7:35 AM 62.6 °F 51.8 °F 68% 30.02 in 10.0 mi SE 8.1 mph - N/A   Clear
7:55 AM 64.4 °F 51.8 °F 64% 30.01 in 10.0 mi SE 10.4 mph - N/A   Clear
8:15 AM 64.4 °F 51.8 °F 64% 30.00 in 10.0 mi SE 12.7 mph - N/A   Clear
8:35 AM 66.2 °F 51.8 °F 60% 30.00 in 10.0 mi SE 11.5 mph - N/A   Clear
8:55 AM 66.2 °F 50.0 °F 56% 30.00 in 10.0 mi SE 13.8 mph - N/A   Clear
9:15 AM 68.0 °F 51.8 °F 56% 29.99 in 10.0 mi SE 13.8 mph - N/A   Clear
9:35 AM 69.8 °F 51.8 °F 53% 29.98 in 10.0 mi SE 15.0 mph - N/A   Clear
9:55 AM 71.6 °F 53.6 °F 53% 29.97 in 10.0 mi SE 16.1 mph - N/A   Clear
10:15 AM 71.6 °F 53.6 °F 53% 29.96 in 10.0 mi SSE 16.1 mph 20.7 mph N/A   Clear
10:35 AM 73.4 °F 53.6 °F 50% 29.97 in 10.0 mi South 15.0 mph - N/A   Clear
10:55 AM 71.6 °F 53.6 °F 53% 29.97 in 10.0 mi SSE 12.7 mph - N/A   Scattered Clouds
11:15 AM 71.6 °F 55.4 °F 57% 29.95 in 10.0 mi SSE 15.0 mph 19.6 mph N/A   Scattered Clouds
11:35 AM 71.6 °F 53.6 °F 53% 29.93 in 10.0 mi SSE 13.8 mph 18.4 mph N/A   Clear
11:55 AM 69.8 °F 55.4 °F 60% 29.92 in 10.0 mi SE 13.8 mph - N/A   Clear
12:15 PM 71.6 °F 55.4 °F 57% 29.90 in 10.0 mi SE 16.1 mph 21.9 mph N/A   Clear
12:35 PM 73.4 °F 55.4 °F 53% 29.87 in 10.0 mi SE 19.6 mph 29.9 mph N/A   Clear
12:55 PM 73.4 °F 55.4 °F 53% 29.84 in 10.0 mi SE 24.2 mph 28.8 mph N/A   Clear
1:15 PM 73.4 °F 55.4 °F 53% 29.83 in 10.0 mi SE 20.7 mph 29.9 mph N/A   Clear
1:35 PM 71.6 °F 55.4 °F 57% 29.87 in 10.0 mi SE 13.8 mph 20.7 mph N/A   Clear
1:55 PM 73.4 °F 55.4 °F 53% 29.88 in 10.0 mi ESE 12.7 mph 18.4 mph N/A   Clear
2:15 PM 73.4 °F 57.2 °F 57% 29.89 in 10.0 mi SSE 11.5 mph 16.1 mph N/A   Clear
2:35 PM 73.4 °F 57.2 °F 57% 29.88 in 10.0 mi SE 12.7 mph 18.4 mph N/A   Clear
2:55 PM 75.2 °F 57.2 °F 53% 29.88 in 10.0 mi SE 16.1 mph 23.0 mph N/A   Clear
3:15 PM 75.2 °F 57.2 °F 53% 29.87 in 10.0 mi SSE 11.5 mph 21.9 mph N/A   Partly Cloudy
3:35 PM 75.2 °F 57.2 °F 53% 29.87 in 10.0 mi SE 13.8 mph 18.4 mph N/A   Partly Cloudy
3:55 PM 75.2 °F 57.2 °F 53% 29.86 in 10.0 mi SSE 9.2 mph 17.3 mph N/A   Partly Cloudy
4:15 PM 75.2 °F 55.4 °F 50% 29.85 in 10.0 mi SSE 10.4 mph - N/A   Partly Cloudy
4:35 PM 77.0 °F 57.2 °F 50% 29.83 in 10.0 mi SSE 18.4 mph - N/A   Clear
4:55 PM 78.8 °F 57.2 °F 47% 29.83 in 10.0 mi SSE 15.0 mph - N/A   Clear
5:15 PM 77.0 °F 57.2 °F 50% 29.83 in 10.0 mi South 17.3 mph 20.7 mph N/A   Scattered Clouds
5:35 PM 75.2 °F 55.4 °F 50% 29.83 in 10.0 mi SSE 12.7 mph 18.4 mph N/A   Mostly Cloudy
5:55 PM 75.2 °F 57.2 °F 53% 29.84 in 10.0 mi SSE 10.4 mph 18.4 mph N/A   Mostly Cloudy
6:15 PM 75.2 °F 57.2 °F 53% 29.83 in 10.0 mi SSE 11.5 mph - N/A   Overcast
6:35 PM 75.2 °F 57.2 °F 53% 29.82 in 10.0 mi SE 13.8 mph - N/A   Overcast
6:55 PM 73.4 °F 57.2 °F 57% 29.82 in 10.0 mi SE 11.5 mph - N/A   Overcast
7:15 PM 73.4 °F 57.2 °F 57% 29.81 in 10.0 mi SE 12.7 mph - N/A   Overcast
7:35 PM 73.4 °F 57.2 °F 57% 29.81 in 10.0 mi SE 12.7 mph - N/A   Overcast
7:55 PM 73.4 °F 57.2 °F 57% 29.80 in 10.0 mi SE 13.8 mph - N/A   Overcast
8:15 PM 73.4 °F 57.2 °F 57% 29.79 in 10.0 mi SE 12.7 mph - N/A   Overcast
8:35 PM 73.4 °F 59.0 °F 61% 29.79 in 10.0 mi SE 12.7 mph - N/A   Overcast
8:55 PM 73.4 °F 59.0 °F 61% 29.79 in 10.0 mi SE 12.7 mph - N/A   Overcast
9:15 PM 71.6 °F 59.0 °F 64% 29.79 in 10.0 mi ESE 10.4 mph - N/A   Overcast
9:35 PM 71.6 °F 59.0 °F 64% 29.79 in 10.0 mi SE 10.4 mph - N/A   Overcast
9:55 PM 71.6 °F 60.8 °F 69% 29.79 in 10.0 mi SE 11.5 mph - N/A   Overcast
10:15 PM 69.8 °F 60.8 °F 73% 29.80 in 9.0 mi SSE 8.1 mph - N/A   Overcast
10:35 PM 68.0 °F 62.6 °F 83% 29.80 in 10.0 mi SE 5.8 mph - N/A   Overcast
10:55 PM 68.0 °F 62.6 °F 83% 29.80 in 10.0 mi SE 4.6 mph - N/A   Overcast
11:15 PM 69.8 °F 62.6 °F 78% 29.80 in 10.0 mi SE 5.8 mph - N/A   Overcast
11:35 PM 66.2 °F 62.6 °F 88% 29.82 in 10.0 mi Calm Calm - N/A   Overcast
11:55 PM 68.0 °F 62.6 °F 83% 29.82 in 10.0 mi Calm Calm - N/A   Overcast